Wind_Speed
21 21 21 21 21 21 20 19 19 18 17 17 16 16 18 19 18 20 17 12 14 13 12 9 12 12 14 19 19 21 14 15 6 15 18 14 8 12 3 10 6 8 10 26 26
24 24 24 23 23 23 22 21 21 20 19 16 15 15 16 17 20 24 19 17 19 17 14 14 13 13 18 20 18 16 15 22 20 22 17 22 16 15 12 7 12 16 21 27 26
24 23 23 23 23 23 23 21 21 20 19 16 14 13 14 14 18 13 11 13 12 10 11 14 11 12 17 19 21 23 17 21 26 29 25 21 21 19 15 14 6 26 27 28 27
24 23 23 23 22 22 21 20 20 19 18 15 13 11 10 7 5 2 6 4 2 7 12 14 15 16 16 17 22 19 22 23 23 27 26 20 22 22 16 18 17 20 30 29 29
23 23 22 22 21 21 20 20 19 17 15 13 11 9 7 8 19 11 8 9 6 8 11 14 17 18 16 16 22 19 19 23 21 25 25 26 20 19 20 19 21 14 25 26 26
23 23 22 21 21 21 21 19 17 15 12 10 7 6 7 15 3 5 6 13 12 13 13 15 17 18 22 21 19 25 26 25 26 27 28 23 22 25 22 23 20 14 25 23 23
23 23 22 22 23 23 22 20 18 14 10 6 5 5 10 18 4 6 8 9 13 15 17 16 17 19 22 21 24 26 23 19 21 27 25 28 18 16 19 14 21 19 20 22 25
25 25 24 24 24 23 20 18 17 12 6 3 4 5 8 1 10 8 9 10 9 13 14 14 15 19 21 22 25 22 25 21 22 24 23 15 15 12 15 18 18 21 20 21 27
26 26 25 24 23 22 16 14 8 5 2 2 2 3 10 3 3 5 9 12 14 17 18 16 16 22 21 18 18 18 19 23 23 21 17 12 11 14 22 14 14 18 11 15 26
26 25 24 23 21 17 14 4 4 6 1 2 3 7 10 4 6 7 10 10 12 10 14 16 15 14 16 14 16 19 19 22 22 22 24 21 14 12 13 22 15 16 19 23 21
25 23 22 21 18 14 15 9 5 1 7 13 7 11 2 5 5 4 2 7 11 11 13 17 14 15 19 19 22 23 23 24 23 23 22 24 22 17 17 19 24 20 25 23 22
26 22 20 19 12 9 14 9 7 8 11 8 6 7 5 4 7 7 1 6 10 11 14 14 16 19 21 18 19 20 23 24 24 22 22 22 24 21 21 17 26 22 23 23 27
26 24 21 16 8 12 7 8 9 10 8 11 10 9 4 5 8 4 3 9 8 13 15 17 17 17 16 16 19 20 20 20 24 22 22 22 24 20 23 18 27 32 29 28 21
26 25 22 13 4 8 2 9 10 8 5 9 8 5 7 10 9 4 5 6 10 12 14 12 15 13 14 16 17 20 20 21 21 20 19 20 17 16 18 19 20 11 16 27 23
25 24 17 12 7 7 10 11 11 4 4 3 7 3 4 7 10 8 4 9 11 13 11 15 15 14 15 16 17 19 21 21 21 21 23 22 14 15 15 16 14 13 22 28 21
22 21 13 10 9 9 12 12 7 5 2 6 1 2 9 15 9 6 12 12 13 9 16 16 16 16 16 8 12 17 19 19 19 17 16 21 19 17 16 15 18 16 19 3 18
20 17 11 8 2 12 12 7 6 6 3 3 3 5 9 9 8 3 8 10 10 6 12 16 14 7 5 10 14 17 18 12 15 13 15 18 17 14 16 17 9 5 21 11 5
20 14 9 7 7 10 8 9 6 1 1 6 8 9 11 9 9 3 10 12 6 2 10 9 12 16 18 16 20 14 16 11 18 16 18 21 12 11 16 18 7 4 12 11 2
22 11 8 7 5 5 10 7 5 10 6 9 12 10 6 7 4 6 9 8 8 8 8 11 15 21 18 17 19 16 14 18 17 19 18 16 20 8 25 11 17 18 25 7 4
24 10 9 5 5 6 8 11 11 6 7 9 12 1 12 5 5 3 4 7 4 8 10 14 19 18 16 19 16 18 13 14 8 10 11 14 19 7 22 23 22 27 31 21 33
14 10 5 3 5 10 9 12 4 3 6 7 11 8 10 7 6 10 6 8 10 9 12 16 12 16 18 16 19 12 10 7 6 3 7 5 9 10 14 14 21 20 34 37 21
9 6 2 4 10 11 10 7 5 9 5 6 6 9 11 11 8 11 12 5 13 12 12 11 9 13 20 20 15 9 5 3 5 9 12 8 13 12 15 15 14 21 31 48 38
9 18 10 3 7 8 6 4 7 9 9 7 7 5 8 8 7 9 10 13 8 9 9 8 9 14 13 17 7 17 15 5 8 10 13 4 7 21 12 11 17 18 2 42 13
8 5 10 8 12 11 13 12 11 8 7 13 11 13 11 11 12 11 12 11 11 4 5 6 11 15 14 18 19 19 22 20 14 5 13 12 16 7 17 7 5 15 20 22 2
6 5 8 7 9 12 13 13 14 15 11 6 7 11 13 12 12 11 14 14 13 2 10 9 14 16 20 23 23 23 25 23 20 20 19 17 3 4 11 11 5 11 7 15 8
8 9 16 18 19 14 11 14 15 16 13 13 11 15 12 11 8 14 14 12 12 15 15 14 15 18 21 21 23 24 24 24 23 18 23 10 12 7 9 21 5 9 2 12 9
9 10 12 12 15 12 11 14 13 9 8 14 13 14 14 11 13 14 20 23 20 18 16 16 13 14 19 20 21 18 17 17 25 10 21 13 14 13 11 9 11 9 11 4 5
Wind_Direction
339 337 334 331 327 325 323 320 317 312 310 310 307 302 300 299 299 294 287 272 281 277 278 262 217 234 249 263 269 275 281 283 61 7 286 360 23 346 56 152 101 81 66 142 152
334 332 329 327 325 321 317 315 312 311 309 308 307 305 298 298 296 282 275 264 270 267 246 200 218 229 251 258 264 258 267 284 303 203 296 338 346 328 325 317 132 114 122 141 153
330 328 327 326 323 320 316 312 309 308 309 305 302 301 306 309 305 265 256 238 257 244 208 212 234 238 253 265 264 261 267 284 300 310 315 308 309 295 331 320 166 139 145 153 160
332 329 328 326 324 321 318 314 311 309 309 305 299 294 300 291 287 85 193 188 209 199 191 227 237 252 249 265 266 259 261 269 291 304 302 297 294 293 303 297 314 156 157 160 165
334 330 328 328 326 322 318 317 312 310 309 306 297 289 287 252 261 248 239 233 233 198 217 230 240 247 256 270 282 285 290 292 288 296 301 296 285 280 277 277 293 128 151 162 174
338 333 330 328 327 325 321 320 314 314 312 302 291 281 267 256 245 292 249 243 244 219 232 242 246 257 276 281 288 289 287 288 288 284 281 272 274 273 266 267 261 167 157 167 182
339 336 333 332 331 329 327 324 320 319 310 294 278 270 251 243 250 266 230 249 223 227 239 247 255 272 277 280 277 288 291 292 288 281 274 270 264 276 285 261 260 253 178 173 184
342 339 337 333 333 331 329 325 320 319 308 273 248 241 246 135 238 245 239 240 232 231 243 264 274 279 277 279 284 280 278 279 279 275 272 241 268 271 271 276 282 237 189 184 184
343 341 339 335 335 334 333 326 340 359 36 141 160 219 260 281 225 235 235 240 243 246 255 259 259 262 269 265 270 262 263 264 264 263 263 246 254 284 275 267 282 283 271 207 192
345 343 341 337 342 343 347 354 3 18 51 227 233 252 252 256 306 274 252 245 253 235 258 242 248 255 250 249 261 275 285 292 299 304 310 301 263 250 268 289 273 262 259 239 237
346 345 343 340 346 5 23 23 318 267 245 277 285 273 281 294 270 227 287 226 237 247 261 237 237 250 243 251 261 271 275 281 286 287 287 290 292 274 275 265 277 238 247 252 239
348 349 346 342 353 22 18 21 23 327 302 255 245 255 252 274 272 204 243 219 189 240 246 240 249 254 253 263 270 277 282 284 285 288 282 274 275 276 275 269 269 278 264 255 236
348 349 347 344 13 12 8 2 343 332 264 245 227 265 242 243 270 253 249 273 267 267 259 259 274 291 290 281 281 277 279 283 288 284 276 279 278 274 270 265 254 251 248 260 246
346 347 348 354 19 9 27 344 338 333 275 140 205 204 235 237 263 191 270 294 284 285 289 293 285 286 296 290 289 285 295 302 292 289 284 285 283 271 279 262 256 207 242 243 237
342 344 349 360 340 14 317 327 326 312 279 154 132 107 246 244 332 195 216 283 263 288 309 286 305 300 293 300 311 297 305 300 298 289 288 282 273 278 262 276 267 259 251 249 256
340 337 344 344 355 339 325 316 316 236 234 138 288 230 256 209 235 277 268 200 262 264 270 262 247 253 290 257 279 278 277 277 277 274 268 273 268 272 271 282 277 247 260 69 347
338 330 319 321 258 324 326 316 253 250 172 112 26 314 309 278 310 194 297 281 238 324 326 318 286 338 11 309 311 324 316 300 291 276 281 271 264 264 270 274 303 117 75 357 26
336 327 312 315 277 319 319 272 265 2 15 67 285 304 260 16 280 299 283 263 170 325 333 344 319 4 347 319 298 294 290 285 289 287 291 297 296 267 282 328 235 139 129 279 217
338 336 317 328 314 312 292 251 325 15 19 349 308 264 232 152 263 296 271 303 19 31 353 310 310 320 304 311 302 316 294 314 303 287 280 279 289 75 3 11 355 345 322 147 104
339 322 259 228 273 294 269 261 303 30 343 308 296 321 303 353 312 286 307 68 316 41 341 314 305 303 313 327 297 277 295 305 303 323 324 316 314 41 16 354 3 13 347 2 353
336 292 170 267 275 262 258 288 347 39 341 307 308 304 288 300 313 303 301 356 49 357 331 312 320 318 314 305 320 347 2 1 308 298 312 251 285 62 20 358 341 340 10 337 292
304 281 201 288 260 243 257 355 24 294 230 269 276 283 290 301 300 302 296 335 35 346 318 357 311 307 316 298 286 342 57 18 298 285 288 296 286 22 18 359 341 342 359 346 279
303 288 263 269 265 279 265 252 270 285 270 269 274 269 291 300 287 277 310 335 328 313 40 341 311 305 311 319 158 342 313 249 212 277 288 109 275 286 3 26 9 326 104 293 326
299 295 203 223 257 280 292 302 283 210 268 283 289 301 297 274 268 272 283 285 291 305 30 310 276 301 298 305 308 305 300 291 261 270 266 214 236 296 335 282 25 353 251 268 308
256 301 350 297 329 342 330 316 303 296 205 251 280 268 262 277 296 299 292 304 309 340 319 316 287 296 297 301 299 292 287 288 292 288 281 298 26 51 313 282 259 282 327 272 48
294 340 328 301 296 276 276 267 276 281 278 288 275 275 283 305 288 300 314 315 312 310 298 289 289 284 284 282 278 279 277 273 269 279 271 345 77 251 259 287 305 17 75 55 21
314 312 281 287 288 278 266 276 292 289 314 295 286 299 295 307 339 318 300 289 281 275 274 270 274 293 289 293 288 281 9 357 352 1 1 344 47 39 13 7 9 6 354 29 21
Height
1531 1528 1526 1523 1520 1517 1515 1512 1510 1508 1506 1505 1504 1502 1499 1497 1496 1494 1492 1494 1492 1491 1491 1492 1493 1494 1493 1489 1486 1480 1477 1475 1477 1510 1455 1437 1439 1439 1441 1446 1447 1450 1454 1462 1473
1529 1526 1523 1520 1517 1514 1512 1509 1507 1505 1503 1502 1501 1499 1497 1495 1493 1488 1489 1488 1488 1488 1488 1491 1493 1493 1491 1487 1482 1477 1473 1464 1453 1459 1453 1443 1441 1442 1441 1442 1447 1452 1459 1465 1474
1527 1524 1520 1517 1514 1511 1508 1506 1503 1501 1500 1499 1498 1497 1495 1493 1489 1481 1483 1485 1486 1486 1488 1491 1491 1490 1487 1482 1477 1470 1468 1458 1453 1451 1451 1448 1446 1446 1443 1444 1445 1448 1458 1464 1472
1525 1522 1518 1515 1512 1508 1505 1502 1500 1498 1496 1495 1495 1494 1494 1493 1489 1482 1483 1484 1485 1485 1487 1489 1489 1486 1483 1478 1471 1468 1462 1459 1455 1453 1451 1449 1448 1446 1447 1447 1446 1445 1451 1460 1467
1524 1520 1516 1513 1509 1506 1502 1500 1497 1495 1493 1492 1492 1492 1492 1492 1483 1482 1482 1484 1485 1485 1487 1487 1486 1484 1480 1474 1469 1464 1460 1457 1455 1452 1450 1448 1446 1446 1446 1447 1446 1444 1451 1459 1466
1522 1518 1515 1511 1507 1503 1499 1496 1494 1492 1491 1490 1489 1490 1490 1489 1482 1481 1481 1482 1483 1484 1487 1486 1484 1481 1477 1474 1472 1467 1463 1458 1456 1452 1449 1446 1444 1443 1442 1443 1443 1443 1446 1454 1462
1520 1517 1513 1508 1504 1500 1496 1493 1490 1489 1488 1488 1488 1488 1489 1484 1481 1482 1482 1481 1482 1484 1485 1483 1483 1482 1479 1473 1470 1465 1460 1455 1452 1447 1441 1436 1437 1436 1434 1436 1438 1438 1440 1445 1454
1519 1515 1511 1506 1502 1498 1493 1490 1488 1486 1486 1486 1487 1487 1483 1479 1480 1480 1480 1481 1481 1482 1482 1481 1481 1479 1478 1474 1470 1467 1462 1464 1447 1439 1431 1429 1447 1432 1432 1431 1429 1430 1433 1438 1445
1518 1513 1509 1505 1501 1496 1492 1489 1487 1486 1485 1485 1486 1486 1478 1478 1477 1477 1478 1479 1479 1480 1480 1480 1481 1479 1478 1473 1472 1461 1467 1455 1442 1428 1424 1424 1435 1430 1430 1429 1430 1429 1431 1434 1437
1517 1513 1508 1504 1501 1496 1492 1489 1487 1486 1486 1485 1485 1489 1479 1476 1476 1476 1476 1476 1476 1476 1477 1477 1478 1476 1472 1472 1483 1466 1457 1445 1443 1429 1422 1422 1423 1422 1424 1426 1424 1427 1429 1431 1433
1517 1512 1508 1504 1501 1497 1493 1489 1491 1489 1487 1481 1481 1477 1475 1476 1475 1473 1473 1474 1476 1476 1474 1469 1472 1470 1461 1454 1449 1447 1448 1447 1438 1430 1431 1428 1424 1420 1420 1421 1421 1420 1423 1423 1425
1516 1512 1508 1504 1501 1499 1497 1497 1498 1499 1488 1479 1478 1477 1475 1475 1472 1470 1473 1472 1472 1473 1466 1467 1467 1453 1447 1447 1448 1448 1449 1445 1433 1428 1428 1426 1423 1417 1416 1414 1417 1415 1417 1415 1416
1516 1512 1508 1504 1501 1500 1501 1500 1498 1497 1491 1473 1474 1473 1473 1474 1469 1467 1470 1466 1465 1463 1458 1458 1448 1440 1440 1441 1447 1442 1444 1442 1439 1427 1422 1425 1424 1418 1410 1409 1409 1408 1409 1409 1409
1516 1512 1508 1504 1504 1501 1502 1501 1499 1497 1488 1469 1471 1470 1472 1470 1467 1466 1468 1469 1464 1460 1454 1453 1447 1444 1444 1446 1443 1449 1432 1429 1430 1433 1441 1420 1435 1413 1405 1400 1397 1398 1402 1404 1403
1516 1512 1509 1505 1504 1504 1503 1500 1498 1498 1492 1466 1464 1469 1469 1469 1465 1464 1467 1467 1464 1459 1458 1457 1448 1447 1449 1444 1439 1444 1434 1433 1431 1432 1431 1427 1432 1411 1399 1402 1394 1394 1395 1395 1395
1517 1512 1509 1505 1504 1505 1502 1500 1500 1497 1489 1466 1464 1463 1462 1459 1460 1462 1462 1464 1460 1458 1450 1445 1440 1438 1436 1435 1438 1435 1434 1432 1429 1428 1441 1426 1425 1418 1405 1400 1391 1387 1390 1391 1390
1516 1511 1507 1506 1506 1504 1502 1501 1495 1489 1462 1464 1463 1461 1460 1459 1459 1459 1460 1456 1458 1471 1462 1452 1437 1431 1434 1440 1434 1433 1437 1451 1450 1444 1437 1407 1414 1406 1393 1391 1389 1386 1394 1404 1398
1514 1510 1507 1505 1503 1504 1503 1498 1500 1460 1462 1462 1464 1463 1464 1459 1456 1459 1460 1457 1449 1458 1464 1465 1469 1443 1441 1444 1446 1439 1441 1456 1472 1459 1441 1410 1426 1414 1393 1396 1386 1392 1401 1404 1400
1512 1509 1506 1505 1504 1504 1504 1493 1474 1469 1469 1471 1468 1466 1456 1458 1465 1459 1455 1456 1454 1460 1477 1474 1468 1450 1443 1439 1437 1439 1445 1425 1435 1425 1427 1418 1406 1398 1411 1400 1406 1405 1403 1398 1404
1511 1506 1505 1505 1505 1505 1500 1490 1473 1475 1477 1474 1478 1465 1470 1460 1467 1459 1459 1454 1461 1462 1467 1468 1473 1452 1441 1440 1435 1431 1425 1440 1432 1461 1462 1446 1439 1454 1436 1427 1425 1439 1429 1408 1409
1513 1507 1503 1504 1504 1502 1494 1474 1475 1477 1483 1478 1473 1472 1469 1470 1468 1467 1463 1457 1460 1467 1468 1464 1464 1461 1450 1446 1442 1438 1444 1449 1449 1453 1472 1476 1444 1433 1437 1435 1428 1437 1451 1446 1416
1515 1506 1502 1503 1502 1490 1481 1479 1483 1481 1480 1481 1477 1478 1475 1471 1473 1471 1468 1460 1465 1469 1472 1468 1470 1471 1460 1440 1433 1435 1449 1453 1462 1459 1449 1459 1448 1434 1440 1441 1434 1431 1434 1436 1445
1515 1505 1500 1500 1495 1481 1473 1477 1479 1481 1478 1477 1475 1473 1474 1475 1482 1471 1466 1464 1468 1470 1474 1474 1476 1480 1462 1441 1432 1442 1439 1441 1452 1448 1454 1491 1475 1436 1437 1437 1435 1428 1431 1441 1441
1518 1500 1492 1496 1493 1490 1486 1481 1479 1477 1482 1481 1479 1477 1476 1477 1471 1473 1469 1465 1465 1467 1473 1473 1470 1473 1475 1463 1450 1452 1442 1432 1435 1451 1446 1464 1449 1437 1449 1442 1436 1430 1426 1440 1440
1517 1502 1501 1496 1488 1491 1488 1487 1484 1479 1476 1480 1480 1478 1476 1478 1473 1473 1468 1464 1463 1467 1468 1471 1476 1468 1460 1453 1450 1446 1440 1431 1429 1425 1428 1419 1428 1449 1450 1446 1439 1439 1432 1441 1438
1518 1512 1507 1503 1498 1494 1492 1489 1486 1479 1478 1475 1478 1474 1473 1474 1475 1477 1472 1471 1472 1471 1470 1468 1472 1464 1459 1450 1443 1439 1427 1421 1417 1415 1411 1409 1440 1450 1438 1447 1439 1440 1435 1430 1438
1516 1516 1513 1504 1496 1490 1485 1481 1478 1477 1481 1480 1479 1478 1476 1474 1475 1478 1478 1475 1472 1470 1468 1465 1462 1463 1463 1448 1441 1444 1444 1434 1431 1430 1436 1426 1441 1442 1443 1446 1443 1440 1439 1441 1441